Regional Weather Roundup
Issued by NWS

Home | Current Version | Previous Version | Text Only | Print | Product List | Glossary On
Versions: 1 2 3 4 5 6 7 8 9 10 11 12 13 14 15 16 17 18 19 20 21 22 23 24 25 26 27 28 29 30 31 32 33 34 35 36 37 38 39 40 41 42 43 44 45 46 47 48 49 50
000
ASUS43 KDMX 252106
RWRIA

WEATHER ROUNDUP FOR IOWA
NATIONAL WEATHER SERVICE DES MOINES IA
300 PM CST SAT FEB 25 2017

NOTE: "FAIR" INDICATES FEW OR NO CLOUDS BELOW 12,000 FEET WITH NO
SIGNIFICANT WEATHER AND/OR OBSTRUCTIONS TO VISIBILITY.

* - THESE STATIONS ARE NOT NWS STATIONS...THUS NOT UNDER NWS
QUALITY CONTROL.  THEY ALSO DO NOT REPORT WEATHER SUCH
AS PRECIPITATION OR FOG.

IAZ001>003-012>014-020>022-031>034-043>046-252200-
   NORTHWEST IOWA

CITY           SKY/WX    TMP DP  RH WIND       PRES   REMARKS
CARROLL *      CLOUDY    28  19  69 SW13      30.02F WCI  18
CHEROKEE *     CLOUDY    27  16  62 SW12      29.99F WCI  17
DENISON *      SUNNY     27  16  63 SW9       30.00F WCI  17
LE MARS *      CLOUDY    28  18  64 S13       29.98F WCI  18
SHELDON *      CLOUDY    27  21  80 SW15      29.93F WCI  15
SIOUX CITY     SUNNY     30  15  53 S13       29.99F WCI  20
SPENCER        CLOUDY    25  18  74 SW13      29.96F WCI  14
STORM LAKE *     N/A     25  16  68 SW9       29.98F WCI  15
$$

IAZ055>058-069>071-079>083-090>094-252200-
   SOUTHWEST IOWA

CITY           SKY/WX    TMP DP  RH WIND       PRES   REMARKS
ATLANTIC *     SUNNY     30  18  59 SW12      30.05F WCI  21
AUDUBON *      CLOUDY    28  19  69 SW9       30.04F WCI  20
CLARINDA *     SUNNY     34  19  55 SW10      30.10F WCI  26
COUNCIL BLFS * SUNNY     30  14  51 S13       30.03F WCI  20
CRESTON *      MOSUNNY   30  19  64 W9        30.07F WCI  22
HARLAN  *      MOSUNNY   28  19  69 S10       30.06F WCI  19
LAMONI         MOSUNNY   33  19  56 W8        30.07F WCI  26
RED OAK *      SUNNY     34  21  60 SW10      30.06F WCI  26
SHENANDOAH *   MOSUNNY   34  19  55 SW10      30.08F WCI  26
$$

IAZ047>049-059>061-072>074-084-252200-
   CENTRAL IOWA

CITY           SKY/WX    TMP DP  RH WIND       PRES   REMARKS
AMES           CLOUDY    27  19  72 W12       30.05F WCI  17
ANKENY *       PTSUNNY   28  18  64 W13G20    30.08S WCI  18
BOONE *        CLOUDY    27  14  59 W14       30.03S WCI  15
CHARITON *     SUNNY     32  16  51 W10       30.06F WCI  24
DES MOINES     PTSUNNY   31  14  49 VRB7      30.06F WCI  24
GRINNELL*      SUNNY     28  16  61 W12       30.06S WCI  18
KNOXVILLE *    MOSUNNY   30  14  51 NW9       30.05F WCI  22
MARSHALLTOWN   SUNNY     27  17  66 W9        30.04R WCI  18
NEWTON *       CLOUDY    28  18  64 W8G16     30.04F WCI  20
PELLA *        CLOUDY    32  17  53 W9        30.08S WCI  24
PERRY *        CLOUDY    28  15  58 W8        30.06S WCI  19
$$

IAZ004>006-015-016-023>025-035-036-252200-
   NORTH CENTRAL IOWA

CITY           SKY/WX    TMP DP  RH WIND       PRES   REMARKS
ALGONA *       FLURRIES  25  18  74 SW17      29.98F WCI  11
CLARION *      CLOUDY    23  14  68 SW13      30.01F WCI  11
ESTHERVILLE    CLOUDY    24  18  77 SW14      29.95F WCI  12
FORT DODGE *   CLOUDY    25  16  68 SW12      30.03F WCI  14
MASON CITY     SUNNY     23  13  65 W14       29.99F WCI  11
FOREST CITY *    N/A     28  16  59 SW12      29.98F WCI  18
WEBSTER CITY * CLOUDY    25  14  63 SW13      30.01F WCI  13
IOWA FALLS *     N/A     26  17  67 W10       30.04S WCI  17
$$

IAZ007>011-017>019-026>030-037>042-050>054-066-252200-
   NORTHEAST IOWA

CITY           SKY/WX    TMP DP  RH WIND       PRES   REMARKS
CEDAR RAPIDS   SUNNY     27  17  66 NW16      30.02R WCI  15
CHARLES CITY * SUNNY     23  12  63 W12       29.99S WCI  12
CLINTON *      SUNNY     29  20  69 NW22G28   29.99R WCI  15
DECORAH *      SUNNY     23  10  58 W9G17     29.95R WCI  13
DUBUQUE        SUNNY     25  14  63 NW17      29.96R WCI  12
MONTICELLO *   SUNNY     28  16  59 NW14G25   29.99R WCI  17
OELWEIN *      SUNNY     25  16  68 W13       29.99R WCI  13
WATERLOO       SUNNY     26  13  57 W9        30.02R WCI  17
$$

IAZ064-065-067-068-078-252200-
   EAST CENTRAL IOWA

CITY           SKY/WX    TMP DP  RH WIND       PRES   REMARKS
DAVENPORT      SUNNY     29  16  58 NW20      30.01R WCI  16
IOWA CITY      SUNNY     31  14  49 MISG      30.05R
MUSCATINE *    MOSUNNY   32  18  55 NW16G22   30.05S WCI  21
QUAD CITIES    SUNNY     32  17  54 W18G28    30.01R WCI  20
$$

IAZ062-063-075>077-085>089-095>099-252200-
   SOUTHEAST IOWA

CITY           SKY/WX    TMP DP  RH WIND       PRES   REMARKS
BURLINGTON     MOSUNNY   33  15  47 NW16G26   30.05R WCI  23
FAIRFIELD *    SUNNY     32  16  51 W9G16     30.06S WCI  24
KEOKUK *       MOSUNNY   36  10  35 NW13G18   30.06S WCI  27
CENTERVILLE *    N/A     32  16  51 CALM      30.08F
OTTUMWA        MOSUNNY   32  15  49 NW14      30.06S WCI  22
WASHINGTON *   MOSUNNY   30  18  59 NW17      30.06S WCI  18
$$

ABBREVIATIONS USED IN REMARKS
   TC - TEMPERATURES IN CELSIUS
  WCI - WIND CHILL INDEX
   HX - HEAT INDEX
  VSB - VISIBILITY
$$




USA.gov is the U.S. government's official web portal to all federal, state and local government web resources and services.